GFSSW_700_rhum_132.txt.gz
RH
78 83 80 74 64 61 50 42 35 26 16 9 5 5 4 4 4 3 3 3 3 2 2 2 2 2 2 2 2 2 23 22 22 30 28 33 10 13 21 20 22 27 30 30 28
82 85 85 79 74 67 60 46 36 27 14 7 4 3 2 2 3 3 3 3 3 2 2 3 3 2 2 2 2 2 15 13 17 22 16 6 4 4 6 7 17 12 10 18 27
87 84 83 80 79 74 69 60 42 30 14 6 4 2 2 2 3 5 6 6 5 5 4 4 3 2 3 3 3 12 10 12 14 3 3 3 3 3 3 3 5 5 4 4 8
79 88 82 80 74 81 80 69 54 37 22 10 5 2 2 2 6 8 5 3 3 2 2 2 2 3 3 4 3 3 5 3 5 2 2 2 2 2 2 2 2 2 2 2 2
87 90 81 78 80 76 86 82 64 44 30 17 7 3 2 1 2 3 3 3 3 4 4 4 4 4 4 4 4 4 4 3 3 3 3 3 2 3 2 2 2 2 2 2 2
98 96 85 77 85 84 77 82 82 68 47 32 8 3 2 3 6 5 5 5 4 4 3 4 4 4 4 4 4 5 4 4 3 4 3 3 3 3 4 4 3 2 2 2 2
85 98 89 83 80 88 78 78 80 83 71 43 15 3 1 2 4 3 4 4 3 3 4 5 6 6 5 6 5 5 5 4 6 5 6 5 4 10 15 6 5 4 4 3 3
92 95 89 87 85 79 83 74 74 77 83 57 12 3 2 3 3 4 4 4 4 5 6 6 6 6 6 6 6 5 10 19 20 12 15 12 10 14 15 10 10 14 5 3 2
95 94 97 98 93 83 92 81 78 83 76 57 12 4 3 5 4 5 5 7 8 7 7 6 7 8 7 9 23 29 16 18 22 23 20 28 10 24 26 27 30 10 11 8 3
100 89 100 99 91 98 96 85 82 88 65 19 13 12 7 8 9 7 7 9 9 10 9 8 7 10 25 31 14 20 23 20 23 26 33 37 13 22 6 35 28 32 34 33 24
88 100 99 100 98 100 98 100 92 73 35 23 6 5 5 7 8 8 8 10 12 10 10 8 14 30 34 28 15 17 36 30 29 36 47 52 44 7 17 36 36 38 39 36 27
33 40 100 100 98 100 100 100 94 71 39 22 9 3 3 5 9 10 10 12 10 12 10 20 39 38 22 22 26 43 42 37 37 52 57 53 47 8 31 29 34 43 51 47 43
33 39 76 100 100 99 99 100 99 75 36 17 6 5 6 8 15 19 16 13 11 10 14 21 50 25 27 42 56 48 49 47 49 58 61 64 35 20 31 32 44 50 54 53 82
30 48 70 100 100 100 99 100 100 79 21 14 8 11 14 17 22 20 17 14 13 21 19 18 28 29 34 46 61 51 55 62 63 69 57 66 56 34 32 66 48 39 51 35 45
31 56 60 100 100 99 100 100 83 59 31 31 19 28 27 26 41 27 21 15 28 23 24 52 25 34 39 58 48 57 59 77 79 75 84 52 53 28 58 48 50 49 51 52 52
28 45 50 98 86 99 100 98 77 22 30 36 32 31 29 29 24 17 12 21 24 23 20 18 23 38 54 49 58 65 84 74 77 81 70 44 43 42 99 96 73 71 74 66 58
37 48 52 100 99 99 98 95 30 34 34 34 39 34 46 34 25 33 46 47 53 43 38 36 44 44 52 70 79 94 76 43 46 50 34 37 42 99 100 78 84 93 89 80 88
59 91 100 100 98 100 94 42 38 30 32 36 40 46 47 37 42 34 66 60 35 32 44 33 44 63 49 75 96 91 87 62 69 44 47 47 38 97 97 79 76 96 96 97 97
92 95 100 100 100 97 93 49 41 35 26 29 54 51 54 40 28 48 66 62 58 20 43 42 36 20 40 91 97 80 88 90 94 65 66 39 68 97 72 74 81 92 97 95 96
99 99 99 98 99 80 50 49 35 24 20 26 40 39 48 49 36 37 58 64 38 24 22 49 56 37 32 82 76 88 90 73 88 80 64 36 87 94 81 93 85 92 95 96 96
100 100 99 96 95 63 52 48 27 21 27 43 32 30 44 51 50 29 58 50 30 26 40 64 48 54 53 74 72 70 80 89 85 76 65 62 94 99 93 99 93 96 97 96 96
98 100 96 96 75 66 82 62 24 29 33 29 27 24 44 21 45 53 59 64 30 32 76 61 80 69 53 68 87 90 95 100 92 73 74 82 97 100 95 96 96 96 96 97 96
98 97 96 94 98 90 70 32 45 45 37 22 14 14 9 20 42 60 56 28 22 40 80 63 88 69 62 85 83 94 96 100 100 96 99 93 97 94 95 96 96 95 98 96 97
96 93 96 80 86 75 42 39 30 39 26 17 16 14 14 27 40 38 29 26 25 47 66 63 89 85 63 79 77 98 99 100 100 99 98 98 97 93 94 95 96 96 96 97 97
93 99 81 78 42 25 36 38 40 35 25 21 27 20 37 46 41 36 25 27 52 64 65 53 79 86 84 80 97 94 97 91 94 99 96 97 98 93 94 96 95 96 97 97 96
93 88 82 53 39 55 60 60 30 32 36 33 27 38 32 27 35 28 25 61 72 69 59 64 88 87 82 92 98 95 98 95 95 95 100 96 99 100 96 96 95 88 95 96 95
78 80 50 43 45 62 48 64 55 49 42 40 32 34 34 25 25 27 27 60 60 60 64 81 99 88 61 79 97 96 92 96 92 93 95 99 100 98 98 93 78 76 76 74 82

GFSSW_700_rhum_138.txt.gz
RH
84 83 82 76 73 68 65 68 62 56 46 38 32 26 17 13 9 7 8 8 8 6 6 4 4 3 3 4 11 22 20 19 19 16 12 18 22 24 24 19 17 20 21 30 34
86 82 83 78 75 75 74 74 70 62 57 47 38 30 23 17 11 10 11 8 8 7 6 5 4 10 11 16 14 16 17 17 14 11 12 16 21 20 15 13 13 12 13 15 17
88 87 86 86 82 81 79 75 73 70 65 57 47 34 29 25 17 27 21 17 11 9 6 4 4 4 4 14 13 15 14 15 13 12 13 14 12 10 12 12 11 12 12 13 14
93 94 89 91 86 82 78 76 73 72 72 67 55 44 36 35 22 26 14 10 8 6 5 4 4 6 17 16 12 14 18 18 14 13 14 15 15 8 6 5 8 12 9 8 6
98 100 98 94 88 86 79 79 77 79 74 77 67 46 38 39 22 36 24 18 13 8 6 6 5 14 11 15 16 14 16 16 17 15 12 13 16 16 7 8 11 10 14 14 14
98 100 100 99 96 89 89 83 73 78 74 76 78 70 57 46 41 43 36 32 24 14 9 6 5 4 4 6 9 12 13 9 7 8 17 18 16 13 10 14 14 12 15 16 17
100 98 97 100 100 97 95 92 86 72 72 74 76 76 72 52 55 52 47 39 29 13 9 11 6 6 13 10 23 14 11 9 10 17 16 16 14 12 13 14 18 20 20 21 23
100 100 100 94 100 99 85 84 90 85 72 76 74 71 68 57 58 53 45 38 24 14 8 8 6 6 6 8 8 10 19 23 18 15 15 17 17 15 16 19 21 22 23 26 26
84 99 100 100 99 100 100 92 85 89 81 78 81 71 61 48 47 40 36 23 19 11 7 6 5 6 15 24 30 24 22 18 16 15 15 18 19 20 24 24 23 25 32 33 31
21 87 95 100 99 100 100 100 92 89 88 85 85 73 51 40 39 33 22 13 10 8 6 7 14 23 34 35 28 25 20 18 16 14 15 18 22 26 25 24 36 40 43 41 39
11 16 34 82 99 100 100 100 99 100 83 84 85 73 46 45 46 28 16 12 7 6 8 38 43 30 26 32 32 30 18 18 17 17 23 26 26 23 34 36 40 50 47 40 36
18 17 21 29 40 75 100 100 99 88 93 88 99 94 60 50 39 23 25 16 16 14 38 41 34 39 33 27 25 27 27 24 22 22 25 25 24 33 40 48 49 40 32 30 35
21 22 24 27 39 51 51 100 90 98 99 98 90 88 78 50 33 33 35 12 35 38 34 32 32 39 36 32 27 28 27 26 26 28 27 27 26 55 54 64 62 47 39 37 31
5 9 14 18 30 71 81 88 71 100 100 92 68 68 71 48 31 28 36 34 38 37 31 35 37 36 36 31 29 31 29 35 33 33 33 32 31 27 49 60 44 32 34 32 29
3 3 4 8 12 28 46 75 79 99 95 74 72 60 49 54 39 34 41 37 32 38 39 37 44 40 44 35 42 37 38 42 41 41 46 40 31 43 65 63 43 42 37 31 38
3 3 3 4 8 18 65 88 100 99 92 76 56 50 47 45 40 42 42 27 43 39 43 38 39 37 39 45 46 46 50 51 48 47 48 38 32 69 77 93 58 43 39 42 52
3 3 2 7 10 12 32 80 98 98 77 69 43 48 44 45 36 47 54 44 39 35 35 34 31 36 40 46 46 56 49 39 34 52 51 34 36 77 92 90 66 52 48 55 62
2 3 5 10 19 15 83 100 98 72 75 60 52 54 47 43 36 38 46 43 40 39 33 28 33 42 51 41 50 59 51 44 53 39 38 32 49 96 99 80 52 59 62 69 65
4 9 34 40 33 30 82 98 94 80 71 70 48 50 47 39 41 40 41 39 39 38 28 23 26 43 54 38 52 66 62 67 53 48 47 38 92 90 84 52 59 57 63 70 71
11 18 67 81 86 91 100 98 97 90 84 66 45 46 41 37 46 47 46 40 40 39 37 35 30 37 31 34 43 55 52 48 65 60 46 38 83 92 58 53 59 58 70 78 80
71 99 96 100 100 98 98 99 88 94 77 75 65 46 42 42 50 51 54 45 47 50 19 43 45 36 38 39 38 65 60 69 55 51 48 55 83 90 76 67 67 71 78 83 85
100 100 100 100 100 98 85 99 87 93 77 55 49 56 47 45 48 59 46 49 53 49 35 52 46 44 40 46 48 49 57 56 65 50 69 82 95 77 73 69 72 73 77 88 93
99 99 100 100 99 96 96 97 93 92 66 56 66 60 68 51 45 51 42 55 54 47 56 54 62 53 38 43 49 52 71 62 66 70 75 88 94 78 77 73 73 68 63 75 91
98 98 99 98 98 86 98 93 91 66 54 67 59 56 44 42 42 44 53 68 59 54 62 58 70 63 63 68 74 85 77 77 74 76 90 97 96 78 68 72 71 62 59 61 64
99 97 88 97 98 95 89 93 81 62 57 55 58 51 50 46 44 40 63 78 42 15 40 46 72 60 52 45 58 63 66 72 84 91 94 96 93 77 73 73 68 66 61 57 55
98 99 89 82 99 93 99 92 60 55 59 59 55 52 48 46 48 46 71 62 32 24 44 48 75 58 54 51 60 60 76 72 86 95 99 92 99 80 80 74 74 76 75 73 62
98 97 86 100 96 95 87 89 93 86 86 76 66 54 56 55 46 50 62 56 59 29 68 82 85 60 61 62 72 76 83 84 82 70 76 96 75 71 75 76 73 73 75 78 75

GFSSW_700_rhum_141.txt.gz
RH
89 84 82 79 76 70 66 64 63 67 62 54 45 40 35 30 25 25 16 14 12 10 10 8 6 5 4 4 12 23 24 24 24 21 12 11 14 22 22 24 22 20 15 23 18
90 89 88 86 79 74 73 72 71 73 70 64 56 47 39 33 31 32 22 21 17 12 11 9 8 8 6 9 14 14 15 15 18 16 13 12 11 14 21 23 19 9 13 12 13
91 93 92 95 88 84 74 76 73 71 69 70 65 56 46 38 37 35 33 27 20 14 10 6 6 4 4 10 14 15 14 14 15 14 13 12 12 11 11 11 7 8 9 10 12
97 97 98 99 97 91 83 76 72 73 70 68 69 69 55 43 33 33 27 25 22 18 15 11 9 7 7 8 14 15 13 14 18 14 13 12 12 9 9 8 8 8 11 10 9
89 82 99 99 99 98 90 82 72 68 68 72 68 72 71 50 47 43 38 36 33 28 20 16 10 10 11 10 12 13 12 14 16 13 14 12 9 12 10 11 13 13 14 15 16
95 98 96 98 100 98 97 88 84 75 64 66 69 72 76 70 54 49 48 48 47 37 26 17 12 10 9 10 8 10 10 12 12 10 9 15 17 14 14 13 13 14 19 20 18
37 76 92 100 97 97 98 97 86 89 76 70 66 66 68 66 61 61 59 55 46 38 28 27 14 12 15 14 12 14 13 11 15 16 17 18 17 13 18 17 19 20 21 22 23
19 55 88 100 100 90 87 70 91 88 85 81 78 69 61 62 57 52 53 51 44 35 28 19 17 14 8 10 10 12 19 21 18 15 17 16 15 15 18 19 20 22 23 23 24
8 29 85 100 98 92 98 100 88 84 87 84 88 77 72 53 49 42 38 40 39 26 14 12 9 8 8 10 18 26 26 21 20 16 15 16 17 19 17 18 25 26 25 24 25
8 9 19 34 54 80 99 89 98 92 99 93 96 80 68 56 50 43 40 33 21 15 15 9 10 12 13 35 32 30 26 24 19 17 15 19 21 24 25 24 28 31 34 34 31
14 12 15 26 62 98 94 100 97 99 96 94 97 88 74 62 59 66 50 31 17 18 13 14 24 24 26 33 35 33 29 25 20 14 20 22 23 26 26 28 33 36 37 35 36
23 23 23 26 30 36 66 85 99 99 97 100 97 94 79 85 72 64 58 45 29 24 16 34 33 33 34 36 32 31 27 21 21 25 25 25 22 30 37 48 46 42 41 39 37
20 22 23 24 28 31 35 48 86 88 100 96 94 74 82 89 74 74 65 48 33 26 22 37 32 35 39 39 34 30 25 28 28 27 26 25 34 47 59 61 59 52 47 41 36
5 5 6 10 14 19 28 38 45 97 94 61 68 50 46 79 79 74 55 42 31 22 22 33 32 34 38 36 31 29 29 33 31 33 35 30 49 68 66 64 57 44 41 36 32
4 4 3 4 5 6 14 25 94 100 97 41 55 54 47 56 54 46 48 34 35 36 35 34 36 36 38 37 30 36 35 34 31 29 42 38 48 64 67 60 48 46 40 35 32
4 4 3 3 3 4 6 22 80 96 93 48 71 55 58 57 57 39 30 36 37 37 40 39 43 46 42 35 43 37 29 31 44 51 66 40 48 90 72 57 55 46 39 36 36
4 5 4 4 4 5 12 93 100 98 65 55 70 63 52 46 46 37 35 39 38 44 33 40 40 39 37 37 40 46 51 52 60 69 71 39 43 93 91 71 54 47 44 47 46
4 4 6 4 7 5 82 100 96 77 61 57 65 51 48 45 46 41 42 42 38 36 29 34 35 32 32 31 50 49 55 54 65 78 68 35 85 100 85 72 57 58 55 54 52
4 4 4 3 4 9 96 100 81 68 69 52 66 49 48 48 45 40 46 50 45 34 41 32 32 31 40 27 47 56 55 62 58 44 60 70 93 100 90 69 56 58 56 60 63
4 4 3 5 14 97 100 98 84 48 39 78 66 58 54 48 45 36 38 40 44 40 38 35 40 40 48 40 22 54 55 51 55 87 72 72 96 97 83 59 54 56 60 63 71
8 37 3 19 78 100 98 86 76 52 74 84 80 58 50 51 48 42 40 42 41 40 38 34 40 40 34 30 20 35 60 59 59 55 79 90 97 81 79 64 62 62 61 58 64
52 70 51 63 100 99 98 69 82 85 86 87 75 77 49 47 44 42 44 46 41 42 39 34 38 36 32 29 33 53 63 65 60 64 68 75 97 81 71 67 68 66 61 56 55
97 100 100 99 100 97 100 96 95 73 93 79 93 72 68 60 49 45 52 54 50 50 41 43 47 41 46 46 48 47 56 59 60 66 62 84 92 84 91 72 74 68 60 56 53
100 97 98 98 100 98 94 94 96 84 82 90 70 64 61 59 65 58 63 68 54 47 42 51 51 53 53 56 47 54 71 68 68 71 78 84 91 85 76 68 71 68 67 67 60
97 97 98 98 98 97 90 86 95 93 92 77 67 61 60 61 70 76 66 59 57 55 44 68 63 60 61 48 56 68 73 75 69 72 79 94 85 75 75 68 66 73 75 72 65
96 92 97 88 99 98 97 97 89 80 74 63 72 70 67 60 78 70 78 60 68 63 31 65 64 63 58 49 53 54 59 69 73 70 80 84 81 81 71 68 70 77 71 66 63
97 94 90 82 91 97 87 89 79 78 79 66 66 77 76 66 69 57 53 48 52 36 29 52 69 60 58 55 64 71 65 75 81 82 70 83 89 74 70 65 64 70 67 63 65

GFSSW_700_rhum_144.txt.gz
RH
91 88 88 85 82 77 73 65 64 60 56 59 56 49 43 39 37 32 23 19 16 14 11 9 9 8 5 4 7 18 19 17 24 26 18 15 12 12 21 19 21 24 26 30 30
93 92 84 87 86 86 78 71 67 66 64 64 62 59 52 45 41 37 30 29 24 19 17 13 13 12 7 6 9 13 14 14 13 19 17 15 14 12 11 18 22 16 14 12 16
92 91 84 82 92 95 87 78 71 69 70 66 62 61 61 53 46 38 37 32 21 15 13 9 10 8 8 7 13 13 13 14 14 15 15 15 14 13 12 11 9 9 8 7 9
82 84 91 90 79 86 94 90 80 71 66 69 62 59 60 61 44 36 26 26 29 29 26 18 19 18 13 9 12 14 15 14 14 14 16 15 14 14 12 10 10 9 10 8 6
77 82 80 75 84 90 90 95 88 79 68 61 57 60 58 59 58 46 39 40 39 37 34 25 23 21 18 14 11 13 14 14 13 14 16 15 13 10 13 13 12 12 12 13 14
77 69 64 80 97 89 91 98 90 87 81 72 60 55 56 59 57 58 53 50 50 49 40 34 20 17 17 15 14 15 14 14 13 13 13 12 10 16 16 14 13 14 15 17 19
30 15 32 82 59 86 97 85 85 87 83 77 75 63 50 57 58 56 57 58 58 52 38 35 17 13 18 16 16 15 15 14 16 17 13 15 16 16 19 16 17 18 20 21 21
8 10 10 18 18 67 99 94 88 83 88 91 81 65 52 58 53 54 53 47 45 47 40 32 20 11 10 12 11 11 15 20 17 15 16 16 15 18 19 20 21 21 21 22 22
9 10 11 10 23 48 90 91 90 85 94 92 84 73 57 45 55 48 44 40 37 39 36 22 14 10 8 8 11 22 26 26 20 16 16 17 17 19 20 20 19 19 19 23 26
10 12 13 14 16 45 77 97 78 96 99 99 88 77 73 52 49 53 52 58 46 36 26 15 11 12 11 16 25 31 31 28 23 17 16 19 19 21 21 20 20 20 22 26 26
14 15 15 19 20 22 26 55 74 88 99 82 96 90 76 63 53 58 66 61 52 39 30 14 18 19 26 33 30 34 34 31 26 21 19 25 24 24 25 26 26 24 26 31 37
19 18 19 19 22 25 29 47 66 98 96 98 96 98 100 87 75 67 68 61 53 44 23 17 26 30 31 31 33 35 35 32 29 22 25 26 26 28 30 29 32 40 45 46 43
18 19 19 21 23 24 26 28 32 47 78 53 84 87 90 97 82 74 69 67 59 54 40 26 30 34 34 34 37 37 33 30 27 26 28 27 29 28 40 53 58 56 53 47 41
8 10 12 12 13 15 17 23 29 34 58 26 20 41 66 83 80 80 64 71 69 58 43 31 27 30 40 37 35 40 37 28 32 34 30 32 43 57 68 70 65 61 53 45 39
3 3 4 4 6 7 9 13 20 48 94 25 35 30 32 37 43 49 50 66 59 51 41 35 32 30 34 34 36 36 32 30 31 35 38 26 39 61 76 70 66 58 49 44 40
5 4 3 3 3 4 6 14 34 93 94 41 52 57 64 55 60 54 49 58 51 45 34 35 36 37 38 37 38 33 32 32 33 37 66 46 49 64 66 65 59 54 52 46 40
4 4 4 3 4 8 11 25 89 92 48 35 59 75 57 55 56 57 47 46 41 40 37 38 35 34 45 41 32 42 38 56 66 76 71 49 52 68 63 63 62 61 53 47 43
4 4 3 4 5 8 18 92 93 44 45 42 68 65 61 50 50 56 33 40 40 39 36 38 36 32 44 40 33 35 39 58 63 77 70 47 65 84 68 69 72 58 51 47 44
4 3 3 4 7 23 76 100 74 28 16 14 32 66 61 55 48 48 39 33 36 39 40 36 38 31 34 31 31 52 48 54 59 57 65 63 91 99 83 86 78 58 51 48 48
5 4 3 5 13 58 100 91 48 4 14 71 69 55 55 50 46 45 42 41 38 40 40 37 37 35 35 38 37 57 58 63 64 82 80 85 93 92 94 83 67 56 53 53 52
6 4 3 8 41 99 99 38 26 20 42 50 66 85 76 60 48 48 42 43 41 39 44 36 40 47 43 44 32 47 56 57 58 59 79 93 88 74 88 73 60 58 56 57 53
5 5 6 8 49 98 76 37 66 54 64 53 38 57 68 66 57 50 46 39 42 40 44 49 42 45 48 43 35 31 29 55 60 66 64 68 74 63 72 70 71 65 65 60 55
7 8 22 25 39 70 66 72 80 66 67 75 61 80 78 77 83 58 49 45 43 51 48 48 42 40 42 38 38 42 55 59 66 61 52 69 61 67 78 76 68 68 67 66 67
92 100 100 98 59 63 76 100 73 75 89 85 56 93 89 76 74 69 64 51 54 54 51 42 49 53 50 44 44 51 52 63 63 60 63 52 50 70 85 74 69 70 69 70 68
100 98 98 98 97 100 98 88 96 81 81 74 85 89 84 79 88 83 60 53 60 60 58 57 54 49 60 54 46 45 59 68 66 64 61 57 62 77 79 72 62 60 59 67 64
98 98 97 98 98 99 98 94 93 92 73 74 77 83 85 76 70 71 66 58 59 64 57 88 59 45 54 54 50 57 71 74 72 69 64 66 74 72 74 58 54 56 61 66 62
98 97 93 92 94 97 94 92 95 90 95 78 59 75 79 71 65 68 67 66 73 76 81 93 78 72 63 56 57 59 53 50 50 63 63 73 67 80 76 63 54 49 55 69 60

GFSSW_700_rhum_147.txt.gz
RH
90 88 86 82 82 76 71 72 72 66 58 51 50 50 52 44 40 37 32 25 25 21 16 13 13 10 8 5 6 7 17 21 26 28 21 18 15 12 18 21 17 21 17 19 17
87 87 80 78 82 79 74 75 74 75 65 60 51 52 55 52 45 41 36 34 32 26 20 18 16 13 10 7 6 8 11 15 19 23 19 17 16 15 13 12 17 15 12 14 15
78 77 78 78 76 72 75 79 79 77 75 64 61 60 57 56 54 46 41 38 34 27 20 17 13 9 8 8 8 10 12 13 13 15 16 16 16 15 14 13 12 12 13 12 9
83 74 74 84 75 72 78 71 81 82 77 68 60 60 53 52 55 42 35 22 24 33 30 26 24 18 12 7 8 13 13 14 15 14 15 15 16 18 12 14 14 13 11 10 9
76 70 72 77 83 77 69 81 86 88 81 75 59 53 47 52 60 58 50 47 46 43 42 40 35 25 17 11 10 10 13 15 15 15 15 15 16 15 13 14 14 13 12 12 13
68 51 37 47 71 75 74 78 91 85 90 74 68 58 56 47 50 57 57 54 50 48 50 50 43 32 23 15 13 13 13 14 14 14 13 14 15 13 13 15 14 13 14 15 15
12 11 10 21 14 17 63 62 90 87 81 76 71 64 62 60 46 56 55 56 54 52 55 52 44 33 26 19 17 16 19 16 15 16 15 14 13 15 16 18 16 14 14 15 17
7 7 8 15 11 16 29 28 71 96 83 82 77 70 67 66 49 50 50 54 47 43 44 44 42 34 26 19 15 14 13 16 17 16 16 16 17 17 18 20 20 20 20 21 21
8 7 10 10 10 13 14 15 56 70 94 79 73 71 59 61 58 45 48 43 40 38 37 37 34 24 18 14 10 11 19 23 17 16 16 16 16 16 18 20 23 23 21 20 20
8 9 9 11 12 13 16 21 59 51 98 82 49 73 68 65 56 54 56 48 52 55 42 32 24 21 16 12 17 24 29 27 20 17 17 18 17 18 19 22 23 24 22 22 22
10 11 12 13 15 16 17 20 33 41 29 55 74 86 85 74 78 61 55 58 54 53 54 37 30 28 20 19 22 33 34 31 27 24 22 19 19 19 21 23 24 25 25 24 21
13 13 13 14 16 18 18 21 19 22 20 28 36 58 93 90 72 75 70 70 60 54 45 36 39 33 24 32 32 33 34 34 33 30 26 25 26 27 28 30 28 28 27 28 31
15 15 16 16 18 19 19 19 19 24 25 11 13 32 60 88 68 72 87 83 69 66 60 56 43 42 30 35 37 36 36 34 32 29 27 29 30 30 31 32 38 42 42 44 45
16 15 15 16 14 14 16 18 21 23 25 14 11 11 13 31 52 74 84 85 76 60 63 52 52 35 33 34 36 38 38 40 34 32 30 31 40 35 35 47 51 50 51 53 57
6 5 5 7 8 8 9 10 12 17 55 17 29 26 31 28 36 57 76 84 78 69 69 51 43 40 32 33 36 37 36 36 32 34 35 35 36 53 57 56 56 60 64 61 52
3 3 3 3 4 4 4 5 9 30 80 20 52 38 41 35 30 50 50 59 64 70 54 48 47 38 35 31 33 37 39 37 38 40 58 38 35 54 64 57 64 68 66 57 53
5 5 5 5 5 5 6 8 26 62 24 24 23 41 45 46 47 59 61 50 54 53 54 53 44 38 38 44 45 42 40 47 70 72 63 44 44 40 65 66 64 63 60 57 54
4 4 3 4 5 8 14 39 42 7 7 14 39 64 62 63 53 57 68 56 51 51 44 40 42 40 38 38 44 38 40 36 59 84 74 61 60 62 64 62 60 62 65 61 52
7 4 3 4 8 11 40 64 5 3 4 4 6 46 68 68 66 58 60 71 54 50 45 39 38 34 32 37 38 43 45 37 56 65 66 58 75 63 60 57 69 73 65 54 48
9 8 6 7 14 22 54 8 6 4 9 18 35 24 31 47 63 62 52 51 59 44 46 42 42 40 37 39 42 43 41 48 55 76 83 85 83 62 58 68 72 72 62 54 51
9 9 7 12 16 48 41 7 8 6 7 24 27 68 56 60 57 55 52 51 45 44 39 37 47 48 43 38 39 41 60 59 62 61 77 85 73 52 64 76 76 65 62 60 56
9 8 8 21 33 31 12 8 9 10 17 22 24 33 58 75 85 73 49 51 50 46 45 41 44 48 46 44 39 39 52 59 56 69 64 67 64 56 62 65 62 71 65 63 63
8 8 31 49 36 35 11 12 23 14 31 32 22 28 23 31 48 68 75 66 60 46 46 51 71 53 58 51 46 50 41 49 56 50 58 65 56 48 49 58 65 66 66 67 64
26 77 100 100 75 68 37 14 32 32 82 79 67 64 45 56 46 87 76 65 59 62 48 48 55 59 69 54 54 49 40 41 45 58 61 61 56 47 49 53 72 70 66 68 63
84 85 81 75 96 92 96 75 93 100 97 82 87 75 54 79 95 92 86 70 72 83 60 50 58 64 85 66 73 65 51 54 64 63 62 54 54 56 46 63 72 67 57 55 54
89 94 92 88 98 97 91 96 100 95 97 97 95 81 83 83 69 90 82 80 78 75 64 71 88 67 76 79 89 64 54 55 55 58 62 65 62 52 53 58 60 54 50 48 51
84 100 97 97 97 97 94 82 77 100 93 88 88 77 78 51 78 79 96 84 70 68 62 65 85 91 94 88 82 73 67 68 64 65 67 64 45 59 52 55 53 54 46 50 53